Location: Cudham
(51.3000°N, 0.0667°E)
Time: 22:52:23
(UTC+00:00)

CZ-4C R/B - Pass Details

Date: 19 May 2025
Orbit: 425 x 537 km, 98.0° (Epoch: 11 June)

Event Time Altitude Azimuth Distance (km) Brightness Sun altitude
Rises 22:47:46 0° 12° (NNE) 2,617 7.9 -17.1°
Reaches altitude 10° 22:49:54 10° 10° (N) 1,709 6.8 -17.2°
Maximum altitude 22:53:33 68° 288° (WNW) 527 3.3 -17.4°
Enters shadow 22:55:00 33° 214° (SW) 830 3.9 -17.5°
